This demonstration page uses our WeatherBlox Daily Observations layout. Learn more.

38.89511, -77.03637

Hourly Observations for August 8, 2015

Temp ( °F °C ) Dew Point ( °F °C ) Humidity (%) Winds ( mph kmh ) Pressure ( in mb ) Visibility ( mi km ) Precip ( " mm )
12:52 am 00:52 Cloudy 79 26 64 18 61 61 ENE 7 11 29.91 1013 10 16.09344 0 0
1:52 am 01:52 Cloudy 77 25 63 17 61 61 NE 8 13 29.91 1013 10 16.09344 0 0
2:52 am 02:52 Cloudy 77 25 63 17 61 61 NE 7 11 29.91 1013 10 16.09344 0 0
3:52 am 03:52 Cloudy 75 24 61 16 61 61 NNE 9 15 29.91 1013 10 16.09344 0 0
4:52 am 04:52 Cloudy 75 24 61 16 61 61 NNE 8 13 29.91 1013 10 16.09344 0 0
5:52 am 05:52 Mostly Cloudy 75 24 61 16 61 61 NE 8 13 29.91 1013 10 16.09344 0 0
6:52 am 06:52 Mostly Cloudy 73 23 61 16 65 65 NE 8 13 29.94 1014 10 16.09344 0 0
7:52 am 07:52 Mostly Cloudy 73 23 61 16 65 65 NNE 10 17 29.94 1014 10 16.09344 0 0
8:52 am 08:52 Mostly Cloudy 77 25 63 17 61 61 NE 9 15 29.97 1015 10 16.09344 0 0
9:52 am 09:52 Mostly Cloudy 79 26 63 17 58 58 NE 8 13 29.97 1015 10 16.09344 0 0
10:52 am 10:52 Mostly Cloudy 81 27 63 17 54 54 NNE 8 13 30 1016 10 16.09344 0 0
11:52 am 11:52 Mostly Cloudy 84 29 61 16 45 45 NE 12 19 29.97 1015 10 16.09344 0 0
12:52 pm 12:52 Mostly Cloudy 84 29 59 15 43 43 E 10 17 29.97 1015 10 16.09344 0 0
1:52 pm 13:52 Mostly Cloudy 86 30 59 15 40 40 ENE 10 17 29.97 1015 10 16.09344 0 0
2:52 pm 14:52 Mostly Cloudy 88 31 59 15 38 38 E 13 20 29.97 1015 10 16.09344 0 0
3:52 pm 15:52 Mostly Cloudy 88 31 61 16 40 40 ENE 12 19 29.94 1014 10 16.09344 0 0
4:52 pm 16:52 Mostly Cloudy 84 29 57 14 40 40 ENE 7 11 29.94 1014 10 16.09344 0 0
5:52 pm 17:52 Mostly Cloudy 86 30 59 15 40 40 ENE 10 17 29.94 1014 10 16.09344 0 0
6:52 pm 18:52 Mostly Cloudy 86 30 57 14 38 38 ENE 6 9 29.94 1014 10 16.09344 0 0
7:52 pm 19:52 Partly Cloudy 81 27 63 17 54 54 ESE 7 11 29.94 1014 10 16.09344 0 0
8:52 pm 20:52 Partly Cloudy 79 26 63 17 58 58 SSE 5 7 29.97 1015 10 16.09344 0 0
9:52 pm 21:52 Partly Cloudy 79 26 63 17 58 58 SSE 6 9 30 1016 10 16.09344 0 0
10:52 pm 22:52 Mostly Cloudy 75 24 63 17 65 65 S 6 9 30 1016 10 16.09344 0 0
11:52 pm 23:52 Mostly Cloudy 75 24 63 17 65 65 SSE 5 7 29.97 1015 10 16.09344 0 0

Powered by AerisWeather